N6GIW Weather Reports


time (UTC)temp
F
wind
direction
speed
knots
gust
knots
rain 1hr
in
rain 24hr
in
rain mn
in
humidity
%
barometer
mb
20260831170004 85 100 1.7 6.1 0.00 0.00 0.00 25 1022.9
20260831165504 85 142 0.9 6.1 0.00 0.00 0.00 25 1022.9
20260831165005 85 158 1.7 5.2 0.00 0.00 0.00 25 1023.0
20260831164504 85 147 2.6 4.3 0.00 0.00 0.00 25 1023.0
20260831164003 85 131 1.7 6.1 0.00 0.00 0.00 25 1023.0
20260831163504 85 118 2.6 7.0 0.00 0.00 0.00 25 1023.0
20260831163003 85 125 3.5 6.1 0.00 0.00 0.00 25 1022.9
20260831162503 84 136 0.0 2.6 0.00 0.00 0.00 25 1022.9
20260831162004 84 153 2.6 6.1 0.00 0.00 0.00 25 1023.0
20260831161503 85 133 2.6 4.3 0.00 0.00 0.00 25 1022.9
20260831160004 84 88 0.9 4.3 0.00 0.00 0.00 25 1022.8
20260831155503 84 124 0.9 1.7 0.00 0.00 0.00 25 1022.8
20260831155004 84 123 1.7 2.6 0.00 0.00 0.00 25 1022.9
20260831154504 84 97 0.0 6.1 0.00 0.00 0.00 26 1022.8
20260831154004 83 78 0.0 2.6 0.00 0.00 0.00 26 1022.8
20260831153504 82 145 0.0 1.7 0.00 0.00 0.00 27 1022.7
20260831153003 82 146 0.9 2.6 0.00 0.00 0.00 27 1022.8
20260831152503 81 163 0.9 2.6 0.00 0.00 0.00 28 1022.7
20260831152003 81 162 1.7 2.6 0.00 0.00 0.00 28 1022.6
20260831151504 80 216 0.0 0.0 0.00 0.00 0.00 28 1022.6
20260831151004 80 228 0.0 1.7 0.00 0.00 0.00 29 1022.6
20260831150504 79 234 0.0 0.0 0.00 0.00 0.00 29 1022.4
20260831145504 78 209 0.9 2.6 0.00 0.00 0.00 30 1022.5
20260831145004 77 215 0.9 2.6 0.00 0.00 0.00 31 1022.4
20260831144504 77 219 0.9 2.6 0.00 0.00 0.00 32 1022.4
20260831144004 76 235 0.9 2.6 0.00 0.00 0.00 32 1022.3
20260831143504 75 233 0.0 2.6 0.00 0.00 0.00 33 1022.3
20260831143003 74 233 0.0 0.0 0.00 0.00 0.00 33 1022.3
20260831142503 73 232 0.0 0.0 0.00 0.00 0.00 34 1022.3
20260831142004 72 232 0.0 2.6 0.00 0.00 0.00 34 1022.2
20260831141503 72 244 0.9 2.6 0.00 0.00 0.00 34 1022.2
20260831141004 71 241 0.9 2.6 0.00 0.00 0.00 34 1022.2
20260831140503 71 238 0.9 2.6 0.00 0.00 0.00 35 1021.9
20260831140003 70 242 0.0 0.9 0.00 0.00 0.00 35 1021.9
20260831135504 70 231 0.0 2.6 0.00 0.00 0.00 36 1021.8
20260831135005 69 236 0.9 2.6 0.00 0.00 0.00 36 1021.8
20260831134504 68 242 0.9 2.6 0.00 0.00 0.00 37 1021.7
20260831134003 67 240 0.0 4.3 0.00 0.00 0.00 37 1021.6
20260831133503 67 228 0.9 4.3 0.00 0.00 0.00 37 1021.5
20260831133004 66 247 1.7 2.6 0.00 0.00 0.00 37 1021.4
20260831132504 66 249 0.9 2.6 0.00 0.00 0.00 37 1021.3
20260831131503 67 244 2.6 4.3 0.00 0.00 0.00 36 1021.3
20260831131004 67 239 0.9 4.3 0.00 0.00 0.00 36 1021.3
20260831130003 67 246 0.9 2.6 0.00 0.00 0.00 36 1021.3
20260831125503 67 240 1.7 2.6 0.00 0.00 0.00 35 1021.3
20260831125003 68 255 1.7 2.6 0.00 0.00 0.00 36 1021.2
20260831124503 68 241 0.9 2.6 0.00 0.00 0.00 35 1021.2
20260831124005 68 245 1.7 4.3 0.00 0.00 0.00 35 1021.2
20260831123503 68 223 0.0 0.9 0.00 0.00 0.00 36 1021.1
20260831123004 68 222 0.0 1.7 0.00 0.00 0.00 36 1021.3
20260831122003 67 227 2.6 4.3 0.00 0.00 0.00 36 1021.1
20260831121504 67 233 1.7 6.1 0.00 0.00 0.00 36 1021.2
20260831121003 66 247 2.6 2.6 0.00 0.00 0.00 37 1021.1
20260831120503 66 242 0.0 1.7 0.00 0.00 0.00 38 1021.0
20260831120004 66 227 0.0 0.0 0.00 0.00 0.00 38 1021.0
20260831115503 66 227 0.0 0.0 0.00 0.00 0.00 39 1020.9
20260831115004 65 225 0.0 0.0 0.00 0.00 0.00 40 1020.9
20260831114504 65 219 0.0 0.0 0.00 0.00 0.00 40 1020.9
20260831114004 66 219 0.0 0.0 0.00 0.00 0.00 40 1020.8
20260831113504 66 219 0.0 0.0 0.00 0.00 0.00 40 1020.8
20260831113003 66 219 0.0 0.0 0.00 0.00 0.00 40 1021.1
20260831112504 66 219 0.0 0.0 0.00 0.00 0.00 40 1021.0
20260831112004 66 219 0.0 0.0 0.00 0.00 0.00 41 1021.0
20260831111503 66 219 0.0 0.0 0.00 0.00 0.00 42 1021.0
20260831111004 65 219 0.0 0.0 0.00 0.00 0.00 43 1021.0
20260831110004 66 219 0.0 0.0 0.00 0.00 0.00 43 1021.0
20260831105504 66 219 0.0 0.0 0.00 0.00 0.00 43 1021.0
20260831105004 66 219 0.0 0.0 0.00 0.00 0.00 43 1021.0
20260831104504 66 213 0.0 0.0 0.00 0.00 0.00 42 1021.0
20260831103504 66 205 0.0 0.0 0.00 0.00 0.00 44 1021.0
20260831103004 66 203 0.0 0.0 0.00 0.00 0.00 44 1021.0
20260831102503 66 195 0.0 0.0 0.00 0.00 0.00 43 1020.9
20260831102004 67 194 0.0 0.0 0.00 0.00 0.00 43 1020.8
20260831101503 67 194 0.0 0.0 0.00 0.00 0.00 42 1020.8
20260831101003 67 194 0.0 0.0 0.00 0.00 0.00 42 1020.8
20260831100003 67 194 0.0 0.9 0.00 0.00 0.00 43 1020.9
20260831095504 67 192 0.0 0.0 0.00 0.00 0.00 43 1020.9
20260831095003 67 192 0.0 0.0 0.00 0.00 0.00 43 1021.0
20260831094503 68 192 0.0 0.0 0.00 0.00 0.00 42 1020.9
20260831094004 69 186 0.0 0.0 0.00 0.00 0.00 40 1020.9
20260831093503 70 186 0.0 0.0 0.00 0.00 0.00 40 1020.9
20260831093004 70 186 0.0 0.0 0.00 0.00 0.00 40 1020.8
20260831092004 69 186 0.0 0.9 0.00 0.00 0.00 42 1020.8
20260831091504 68 182 0.0 0.0 0.00 0.00 0.00 43 1020.8
20260831091004 68 182 0.0 0.0 0.00 0.00 0.00 42 1020.8
20260831090503 68 178 0.0 0.0 0.00 0.00 0.00 42 1020.8
20260831090004 69 178 0.0 0.0 0.00 0.00 0.00 41 1020.8
20260831085503 69 178 0.0 0.0 0.00 0.00 0.00 41 1020.8
20260831085003 70 178 0.0 0.0 0.00 0.00 0.00 40 1020.8
20260831084504 70 178 0.0 0.0 0.00 0.00 0.00 41 1020.9
20260831084003 70 178 0.0 0.0 0.00 0.00 0.00 40 1021.1
20260831083503 70 178 0.0 0.0 0.00 0.00 0.00 41 1021.1
20260831083004 69 178 0.0 0.0 0.00 0.00 0.00 41 1021.2
20260831082504 69 178 0.0 0.0 0.00 0.00 0.00 42 1021.2
20260831082004 70 178 0.0 0.0 0.00 0.00 0.00 41 1021.2
20260831081504 70 178 0.0 0.0 0.00 0.00 0.00 41 1021.1
20260831081004 70 178 0.0 0.0 0.00 0.00 0.00 40 1021.2
20260831080504 71 178 0.0 0.0 0.00 0.00 0.00 40 1021.2
20260831080005 71 178 0.0 1.7 0.00 0.00 0.00 40 1021.2
20260831075004 71 178 0.0 0.9 0.00 0.00 0.00 39 1021.3
20260831074004 72 199 0.0 2.6 0.00 0.00 0.00 39 1021.0
20260831073504 72 200 1.7 2.6 0.00 0.00 0.00 39 1021.0
20260831073004 73 205 0.0 0.0 0.00 0.00 0.00 37 1021.1
20260831072503 74 205 0.0 0.0 0.00 0.00 0.00 37 1021.1
20260831072004 74 205 0.0 0.9 0.00 0.00 0.00 36 1021.2
20260831071503 75 205 0.0 0.0 0.00 0.00 0.00 36 1021.2
20260831071004 76 205 0.0 0.0 0.00 0.00 0.00 35 1021.1
20260831070503 76 205 0.0 0.0 0.00 0.00 0.00 35 1021.1
20260831065503 77 205 0.0 0.0 0.00 0.00 0.00 35 1021.1
20260831065003 77 205 0.0 0.0 0.00 0.00 0.00 35 1021.1
20260831064504 78 275 0.0 0.0 0.00 0.00 0.00 34 1021.0
20260831064004 78 275 0.0 1.7 0.00 0.00 0.00 34 1021.1
20260831063505 79 341 0.0 1.7 0.00 0.00 0.00 34 1021.0
20260831063003 79 340 0.9 2.6 0.00 0.00 0.00 33 1021.1
20260831062504 80 34 0.9 2.6 0.00 0.00 0.00 33 1021.2
20260831062004 79 331 0.9 6.1 0.00 0.00 0.00 35 1021.1
20260831061504 78 298 0.0 0.0 0.00 0.00 0.00 37 1021.1
20260831061004 78 297 0.0 0.0 0.00 0.00 0.00 37 1021.1
20260831060503 79 297 0.0 2.6 0.00 0.00 0.00 37 1021.2
20260831060004 79 276 0.0 4.3 0.00 0.00 0.00 37 1021.1
20260831055504 79 313 2.6 7.0 0.00 0.00 0.00 38 1021.1
20260831055004 79 289 2.6 7.8 0.00 0.00 0.00 38 1021.2
20260831054004 80 274 1.7 7.0 0.00 0.00 0.00 36 1021.0
20260831053503 80 253 6.1 10.4 0.00 0.00 0.00 36 1021.0
20260831052504 81 249 7.0 11.3 0.00 0.00 0.00 36 1020.9
20260831052004 81 234 7.0 12.2 0.00 0.00 0.00 36 1020.9
20260831051003 80 232 5.2 10.4 0.00 0.00 0.00 37 1020.9
20260831050504 80 235 5.2 10.4 0.00 0.00 0.00 38 1021.1
20260831050004 80 229 4.3 8.7 0.00 0.00 0.00 39 1021.1
20260831045504 80 238 4.3 8.7 0.00 0.00 0.00 39 1021.1
20260831045004 80 247 4.3 8.7 0.00 0.00 0.00 38 1021.1
20260831044004 80 239 5.2 8.7 0.00 0.00 0.00 37 1020.9
20260831043504 81 225 4.3 8.7 0.00 0.00 0.00 37 1020.9
20260831043003 81 232 6.1 11.3 0.00 0.00 0.00 36 1020.8
20260831042504 81 234 7.0 10.4 0.00 0.00 0.00 37 1020.8
20260831042003 82 228 7.8 11.3 0.00 0.00 0.00 36 1020.7
20260831041503 82 229 3.5 8.7 0.00 0.00 0.00 33 1020.7
20260831040504 83 224 6.1 10.4 0.00 0.00 0.00 32 1020.4
20260831040003 84 228 7.8 13.0 0.00 0.00 0.00 31 1020.3
20260831035505 84 221 7.8 12.2 0.00 0.00 0.00 29 1020.2
20260831035003 83 221 7.8 12.2 0.00 0.00 0.00 29 1020.3
20260831034003 82 212 5.2 11.3 0.00 0.00 0.00 36 1020.3
20260831033505 81 196 0.9 5.2 0.00 0.00 0.00 37 1020.4
20260831032504 82 229 2.6 8.7 0.00 0.00 0.00 40 1020.2
20260831032003 82 219 5.2 10.4 0.00 0.00 0.00 40 1020.1
20260831031504 82 212 5.2 10.4 0.00 0.00 0.00 39 1020.0
20260831031004 82 202 4.3 8.7 0.00 0.00 0.00 40 1020.1
20260831030504 83 209 5.2 7.8 0.00 0.00 0.00 39 1020.0
20260831030004 83 217 4.3 8.7 0.00 0.00 0.00 38 1019.9
20260831025504 83 189 4.3 7.8 0.00 0.00 0.00 38 1019.9
20260831025004 84 216 2.6 7.0 0.00 0.00 0.00 37 1020.0
20260831024504 84 211 5.2 7.8 0.00 0.00 0.00 35 1019.7
20260831024003 85 205 5.2 10.4 0.00 0.00 0.00 33 1019.6
20260831023503 85 209 5.2 8.7 0.00 0.00 0.00 32 1019.4
20260831023004 85 209 3.5 7.0 0.00 0.00 0.00 30 1019.3
20260831022504 86 215 3.5 10.4 0.00 0.00 0.00 31 1019.4
20260831022004 86 224 7.0 13.9 0.00 0.00 0.00 31 1019.3
20260831021503 86 210 6.1 11.3 0.00 0.00 0.00 31 1019.3
20260831021003 87 221 5.2 12.2 0.00 0.00 0.00 29 1019.2
20260831020503 87 224 5.2 10.4 0.00 0.00 0.00 28 1019.2
20260831020004 88 232 5.2 11.3 0.00 0.00 0.00 28 1019.1
20260831015503 88 227 6.1 13.0 0.00 0.00 0.00 28 1019.1
20260831015004 88 228 7.8 13.0 0.00 0.00 0.00 28 1019.0
20260831014503 88 207 9.6 14.8 0.00 0.00 0.00 29 1019.1
20260831014005 89 224 5.2 11.3 0.00 0.00 0.00 28 1019.1
20260831013503 89 205 9.6 15.6 0.00 0.00 0.00 27 1019.1
20260831012503 89 213 11.3 21.7 0.00 0.00 0.00 27 1019.3
20260831012004 90 218 10.4 17.4 0.00 0.00 0.00 28 1019.5
20260831011504 90 245 10.4 15.6 0.00 0.00 0.00 29 1019.5
20260831010004 91 222 11.3 15.6 0.00 0.00 0.00 27 1019.6
20260831005503 91 218 11.3 17.4 0.00 0.00 0.00 26 1019.4
20260831005004 91 217 11.3 20.0 0.00 0.00 0.00 26 1019.6
20260831004504 92 206 11.3 18.2 0.00 0.00 0.00 27 1019.4
20260831004003 92 206 11.3 20.0 0.00 0.00 0.00 25 1019.5
20260831003004 92 213 11.3 17.4 0.00 0.00 0.00 24 1019.4
20260831002504 92 234 12.2 19.1 0.00 0.00 0.00 24 1019.4
20260831001004 93 227 13.0 18.2 0.00 0.00 0.00 21 1019.4
20260831000503 93 211 11.3 19.1 0.00 0.00 0.00 21 1019.4
20260831000004 93 234 13.0 17.4 0.00 0.00 0.00 20 1019.4
20260830235503 94 219 13.0 18.2 0.00 0.00 0.00 20 1019.3
20260830235004 93 199 15.6 24.3 0.00 0.00 0.00 17 1019.4
20260830234504 94 206 13.9 22.6 0.00 0.00 0.00 20 1019.5
20260830234003 94 220 10.4 20.9 0.00 0.00 0.00 19 1019.4
20260830233503 94 200 10.4 17.4 0.00 0.00 0.00 18 1019.5
20260830233004 94 215 10.4 19.1 0.00 0.00 0.00 19 1019.4
20260830231504 94 200 13.0 20.0 0.00 0.00 0.00 20 1019.5
20260830230503 94 193 13.9 20.0 0.00 0.00 0.00 19 1019.7
20260830230004 94 197 12.2 22.6 0.00 0.00 0.00 18 1019.8
20260830225503 94 205 12.2 18.2 0.00 0.00 0.00 20 1019.7
20260830225003 95 196 12.2 20.0 0.00 0.00 0.00 18 1019.9
20260830224504 95 202 10.4 17.4 0.00 0.00 0.00 19 1019.8
20260830224004 95 198 10.4 19.1 0.00 0.00 0.00 19 1020.1
20260830223504 94 207 11.3 24.3 0.00 0.00 0.00 19 1020.1
20260830223004 95 192 11.3 26.1 0.00 0.00 0.00 21 1020.1
20260830222004 95 222 12.2 17.4 0.00 0.00 0.00 18 1020.3
20260830221004 94 189 12.2 18.2 0.00 0.00 0.00 21 1020.5
20260830220504 95 190 13.0 22.6 0.00 0.00 0.00 22 1020.6
20260830220004 95 197 10.4 17.4 0.00 0.00 0.00 21 1020.7
20260830215005 95 199 11.3 17.4 0.00 0.00 0.00 22 1020.8
20260830214503 94 198 10.4 20.9 0.00 0.00 0.00 22 1021.0
20260830214004 94 194 12.2 20.9 0.00 0.00 0.00 22 1021.0
20260830213504 95 190 12.2 19.1 0.00 0.00 0.00 21 1021.2
20260830213004 94 198 8.7 21.7 0.00 0.00 0.00 22 1021.2
20260830212503 94 172 12.2 20.9 0.00 0.00 0.00 22 1021.4
20260830212004 94 165 8.7 18.2 0.00 0.00 0.00 23 1021.5
20260830211503 94 191 11.3 22.6 0.00 0.00 0.00 22 1021.6
20260830211004 94 180 10.4 22.6 0.00 0.00 0.00 22 1021.7
20260830210503 94 182 11.3 15.6 0.00 0.00 0.00 22 1021.7
20260830210004 94 202 8.7 13.9 0.00 0.00 0.00 23 1021.8
20260830205503 94 217 10.4 15.6 0.00 0.00 0.00 23 1021.9
20260830205004 94 185 11.3 17.4 0.00 0.00 0.00 23 1022.2
20260830204505 94 186 8.7 13.9 0.00 0.00 0.00 23 1022.2
20260830204004 94 166 9.6 14.8 0.00 0.00 0.00 24 1022.1
20260830203504 93 187 7.0 14.8 0.00 0.00 0.00 22 1022.2
20260830203004 94 168 7.8 11.3 0.00 0.00 0.00 24 1022.3
20260830202504 93 158 5.2 17.4 0.00 0.00 0.00 25 1022.3
20260830202004 93 152 5.2 17.4 0.00 0.00 0.00 24 1022.2
20260830201504 93 173 9.6 13.9 0.00 0.00 0.00 24 1022.2
20260830201003 94 204 7.8 13.0 0.00 0.00 0.00 23 1022.2
20260830200504 94 168 8.7 17.4 0.00 0.00 0.00 24 1022.3
20260830200004 94 169 12.2 18.2 0.00 0.00 0.00 24 1022.3
20260830195504 94 171 8.7 17.4 0.00 0.00 0.00 24 1022.2
20260830195003 93 172 10.4 20.9 0.00 0.00 0.00 24 1022.1
20260830194504 93 212 8.7 14.8 0.00 0.00 0.00 23 1022.2
20260830194004 93 192 7.8 17.4 0.00 0.00 0.00 23 1022.2
20260830193004 93 199 10.4 15.6 0.00 0.00 0.00 22 1022.6
20260830192504 93 181 10.4 17.4 0.00 0.00 0.00 22 1022.5
20260830192003 93 185 8.7 13.0 0.00 0.00 0.00 23 1022.6
20260830191503 93 185 10.4 14.8 0.00 0.00 0.00 23 1022.6
20260830191003 92 195 10.4 17.4 0.00 0.00 0.00 23 1022.6
20260830190504 92 185 7.8 12.2 0.00 0.00 0.00 24 1022.9
20260830190003 92 196 7.0 12.2 0.00 0.00 0.00 24 1022.8
20260830185504 92 194 4.3 13.0 0.00 0.00 0.00 23 1022.9
20260830184503 92 208 4.3 12.2 0.00 0.00 0.00 24 1022.8
20260830184004 92 195 6.1 10.4 0.00 0.00 0.00 24 1022.9
20260830183504 92 162 4.3 12.2 0.00 0.00 0.00 24 1023.0
20260830183004 92 162 0.9 4.3 0.00 0.00 0.00 26 1023.0
20260830182504 91 144 1.7 6.1 0.00 0.00 0.00 26 1023.0
20260830182003 91 299 0.9 4.3 0.00 0.00 0.00 26 1023.1
20260830181504 92 145 1.7 6.1 0.00 0.00 0.00 26 1023.1
20260830181004 92 126 3.5 7.0 0.00 0.00 0.00 26 1023.1
20260830180504 91 93 1.7 6.1 0.00 0.00 0.00 26 1023.0
20260830175504 91 122 0.0 6.1 0.00 0.00 0.00 27 1023.1
20260830174004 91 100 0.9 7.8 0.00 0.00 0.00 27 1023.1
20260830173004 90 126 2.6 5.2 0.00 0.00 0.00 27 1023.0
20260830172504 89 115 0.9 5.2 0.00 0.00 0.00 28 1023.2
20260830172004 90 115 0.9 2.6 0.00 0.00 0.00 28 1023.2
20260830171504 90 99 0.9 2.6 0.00 0.00 0.00 28 1023.0
20260830171004 89 162 0.0 6.1 0.00 0.00 0.00 28 1023.0